Overview Statistics Trail Chart Weather Telemetry Raw packets
 

This is the latest recevied weather packets stored in our database for station/object R1ZCU-14. If no packets are shown the sender has not sent any weather packets the latest 10 day(s).

<< 34 35 36 37 38 39 40 >>
Time Temp. Humidity Pressure Rain* Wind** Luminosity Snow
1787829528 11.67° C 73% 1020.6 hPa - - - -
1787828921 10.56° C 74% 1020.6 hPa - - - -
1787828321 10° C 83% 1020.7 hPa - - - -
1787827720 10.56° C 80% 1020.7 hPa - - - -
1787827120 11.11° C 80% 1020.6 hPa - - - -
1787826519 10.56° C 84% 1020.6 hPa - - - -
1787825919 10.56° C 88% 1020.7 hPa - - - -
1787825318 11.11° C 76% 1020.5 hPa - - - -
1787824718 11.67° C 70% 1020.1 hPa - - - -
1787824117 10.56° C 77% 1020.3 hPa - - - -
1787823517 11.11° C 71% 1020.3 hPa - - - -
1787822916 12.22° C 65% 1020.1 hPa - - - -
1787822316 13.33° C 59% 1020 hPa - - - -
1787821715 10.56° C 80% 1020.1 hPa - - - -
1787821115 11.11° C 78% 1020.1 hPa - - - -
1787820514 13.89° C 58% 1020 hPa - - - -
1787819914 15° C 51% 1019.2 hPa - - - -
1787819313 10.56° C 81% 1020 hPa - - - -
1787818713 11.67° C 71% 1019.9 hPa - - - -
1787818112 14.44° C 58% 1019.9 hPa - - - -
1787817512 18.33° C 42% 1019.7 hPa - - - -
1787816912 16.67° C 47% 1019.2 hPa - - - -
1787816311 11.67° C 79% 1019.5 hPa - - - -
1787815710 10° C 98% 1019.9 hPa - - - -
1787815110 10.56° C - 1020 hPa - - - -

* Rain since midnight (hover to see other rain measurements)
** Current wind speed in m/s (hover to see current wind gust speed)